IRIDIUM 157 (43251 NORAD) Tracking and Keplerian Element Data

This shows tracking and keplerian element data for the satellite.

Feedback or suggestion? Click here.




ElementValue
Catalog43251
NameIRIDIUM 157
Epoch Orbit420
Epoch Day118.53563244
Epoch Year2018
RAAN92.2889
Inclination86.3945
Eccentricity0.0002846
Argument of Perigee90.5989
Mean Anonmoly269.5533
Mean Motion14.34213591
Decay Rate2.6E-07
L11 43251U 18030C 18118.53563244 .00000026 00000-0 20780-5 0 9998
L22 43251 86.3945 92.2889 0002846 90.5989 269.5533 14.34213591 4202

Live tracking and technical data element details for IRIDIUM 157 (NORAD 43251). IRIDIUM 157 can be tracked NOW for your location showing map with azimuth and elevation plus other details from your city location.

Track the satellite on the map from your city or location and see movement details for azimuth, elevation, latitude, longitude, range, height, and movement on the map or in text.







IsCatalogInMostPopularTable: catalog: 43251, numindb: 75
Update: records affected: 1



GetName: 43251 IRIDIUM 157

Hit Count: updated at: Tue, 20 Nov 2018 08:45:14 GMT